sat.trackr.live / text

‹ back to catalog

STARLINK-33586

NORAD 63073 · 2025-035X

PAYLOAD ACTIVE UNKNOWN

§ Identity

Operator
Country
US
Launch date
2025-02-21
Launch site
AFETR
Launch vehicle
Mass (kg)
RCS (m²)

Purposes: comms

External: N2YO · Heavens-Above · Gunter

§ Orbital elements

Epoch: 2026-05-25T03:22:17.949792Z

Period
94.27 min
Inclination
42.9992°
Eccentricity
0.0001115
Mean motion
15.27599994 rev/d
Perigee alt
482.2 km
Apogee alt
483.8 km
Semi-major
6,861.1 km
B*
8.6678e-4
RAAN
68.2376°
Arg perigee
272.2162°
Mean anomaly
87.8562°
Rev number
7,150

§ Raw data

STARLINK-335861 63073U 25035X   26145.14048553  .00023681  00000+0  86678-3 0  99992 63073  42.9992  68.2376 0001115 272.2162  87.8562 15.27599994 71507

JSON: /api/v1/satellites/63073 · /tle

For live sub-satellite position, see the globe view (requires WebGL).

§ Visibility from observer

Set your observer location to see the next 7 days of passes ≥ 10°. The values pass through the URL so the page stays shareable.

No JS? Fill the form by hand. The geolocation button needs JavaScript.